GEFSMW_con_maxscp_306.txt.gz
SCP
6 6 5 4 3 4 5 5 5 4 3 2 2 2 2 2 2 2 2 2 2 2 2 2 3 3 2 2 3 3 2 2 1 1 1 1 1 2 1 1 1 1 1
7 6 5 4 3 4 5 5 5 4 3 2 2 2 2 2 2 3 3 3 4 3 3 4 4 3 3 3 3 3 2 2 1 1 1 1 1 1 1 1 1 1 1
8 7 5 3 3 3 4 4 4 3 3 2 2 2 2 3 3 4 5 5 5 5 4 4 4 4 3 3 3 3 3 2 2 2 2 1 1 1 1 1 1 1 1
9 8 5 3 2 2 3 5 5 5 5 4 4 4 4 4 5 6 6 6 5 5 5 4 4 4 4 4 4 4 3 3 2 2 2 2 1 1 1 1 1 1 1
8 7 5 3 3 5 6 7 8 9 9 9 8 7 7 7 6 6 5 5 5 4 4 3 3 4 4 4 4 4 4 3 3 2 2 2 1 1 1 1 1 2 2
7 6 5 5 5 7 8 9 10 11 12 12 10 9 8 7 6 5 4 4 4 3 3 3 3 3 4 4 4 3 3 3 3 2 2 2 1 1 1 1 1 2 2
5 5 5 6 6 6 7 7 9 10 10 10 9 7 6 6 5 4 4 3 3 3 3 3 3 3 3 3 3 3 2 2 2 2 2 2 2 1 1 1 1 1 2
3 4 6 7 7 6 5 6 7 7 7 7 7 6 5 5 5 4 4 3 3 4 4 4 3 3 3 2 2 2 2 2 2 2 2 2 2 2 2 2 2 1 1
2 3 6 8 8 6 6 6 6 7 7 7 7 6 5 5 5 6 4 3 3 4 5 5 3 3 2 2 2 2 2 2 3 2 2 2 2 2 2 2 2 2 1
3 3 6 9 9 8 7 7 7 7 9 10 9 8 6 6 6 6 5 4 4 5 6 6 5 4 3 3 3 3 2 2 3 3 2 2 2 1 1 2 2 2 2
4 5 7 9 10 9 7 7 7 7 7 9 10 10 8 7 6 5 5 4 5 7 7 6 5 5 5 4 4 3 3 3 3 3 3 2 2 2 1 1 2 2 2
8 8 9 9 9 8 6 6 6 5 5 6 8 9 9 7 6 5 5 5 6 7 6 5 5 5 5 4 4 4 3 3 4 4 4 3 2 2 2 1 1 2 2
13 12 11 9 8 7 6 6 6 5 4 4 5 6 7 7 7 7 7 7 8 8 6 6 5 5 5 5 5 5 4 4 4 5 5 4 3 3 2 2 2 2 2
12 12 11 9 8 7 6 6 6 5 5 5 5 6 6 7 9 10 10 9 9 7 6 5 5 5 5 5 5 5 5 5 5 5 5 5 5 4 3 2 2 2 2
8 9 9 8 7 7 7 7 6 6 7 7 7 7 8 9 11 13 13 12 10 7 5 5 5 5 4 4 4 5 5 5 5 6 6 6 6 5 4 3 2 2 2
9 8 8 7 7 7 8 8 7 8 9 9 9 10 10 11 14 16 16 14 10 7 6 6 5 5 4 4 4 4 5 5 6 6 7 7 6 5 4 3 2 1 1
11 10 9 8 8 8 9 9 10 11 12 11 11 12 13 13 15 17 16 13 9 7 7 7 7 6 5 4 3 4 4 5 6 6 7 7 7 6 5 3 2 1 1
12 11 10 9 9 10 10 11 12 14 14 13 12 13 14 14 14 14 13 11 9 8 8 8 8 8 6 4 3 3 4 4 5 6 8 8 8 8 7 5 3 2 1
11 10 9 8 9 10 11 12 13 15 13 11 12 13 14 14 13 12 12 11 10 9 8 8 8 8 7 5 3 2 3 4 4 6 8 9 10 9 8 6 5 3 3
9 8 7 7 10 11 11 12 14 14 11 10 11 13 14 14 14 13 12 11 10 9 8 8 8 8 7 5 2 2 3 4 5 6 7 9 10 8 6 5 5 4 4
6 6 6 9 11 12 12 12 13 12 10 10 11 13 15 15 15 14 13 12 10 8 8 7 8 7 6 5 3 2 3 5 5 6 7 7 7 5 3 3 4 4 3
5 5 7 9 11 13 13 13 13 11 10 11 11 12 15 15 16 16 15 13 11 9 8 8 7 6 6 5 3 2 2 4 5 6 6 5 4 2 1 1 2 2 2
10 10 12 15 16 16 15 14 13 12 12 12 12 13 14 16 17 17 16 13 11 9 9 8 8 8 8 7 5 3 2 2 3 5 4 3 2 1 1 1 1 1 2
17 19 22 24 24 20 16 14 13 13 14 14 14 13 14 15 17 18 15 12 10 9 8 8 9 10 11 10 8 5 3 2 2 3 3 3 2 2 2 2 2 2 2
18 20 23 24 22 18 14 13 14 14 15 15 14 13 12 13 15 16 13 10 8 7 6 7 8 8 9 9 7 5 4 3 2 3 4 4 4 4 4 4 4 4 4
16 16 16 16 15 14 13 13 15 16 16 16 14 12 11 12 14 14 10 6 6 5 5 5 5 5 5 5 4 4 3 3 3 4 5 5 5 5 5 4 5 5 5

GEFSMW_con_maxscp_312.txt.gz
SCP
1 1 1 1 1 1 1 1 1 1 1 1 1 0 1 1 1 1 1 2 2 2 3 3 3 2 2 1 1 1 1 1 1 1 0 0 0 0 0 0 1 1 1
1 1 1 1 1 1 1 1 1 1 1 1 1 1 1 1 1 2 2 2 2 3 3 3 2 2 1 1 1 1 1 1 1 1 0 0 0 0 0 0 0 1 1
1 1 1 1 1 1 1 2 3 3 2 2 1 1 1 2 3 3 3 2 2 2 2 2 2 1 1 1 1 1 1 1 1 1 0 0 0 0 0 0 0 1 1
2 2 2 2 2 3 3 4 4 4 4 3 2 2 3 4 4 3 3 2 2 2 2 1 1 1 1 1 1 1 1 1 1 1 0 0 0 0 0 0 0 0 0
3 3 3 4 5 6 7 6 6 6 5 4 3 3 4 5 5 4 2 2 1 1 1 1 1 1 1 1 1 1 1 1 1 1 1 0 0 0 0 0 0 0 0
6 7 7 8 9 10 9 8 7 7 6 5 5 5 5 5 4 3 2 2 1 1 1 1 1 1 1 1 1 1 1 1 1 1 1 1 0 0 0 0 0 0 0
10 10 11 10 10 10 9 8 6 6 5 5 5 5 4 3 3 2 2 2 1 1 1 1 1 1 1 1 1 1 1 1 1 1 1 1 1 1 0 0 0 0 0
12 12 11 10 9 9 8 6 5 4 4 4 4 3 3 2 2 3 3 3 2 1 1 1 1 1 1 1 1 1 1 1 1 1 1 1 1 1 1 0 0 0 0
14 12 10 8 8 8 7 5 4 3 3 3 3 3 3 3 3 4 4 4 3 1 1 1 1 1 1 1 1 1 1 1 1 1 1 1 1 1 1 1 1 0 0
14 12 10 9 9 8 7 5 4 3 2 2 2 3 3 4 5 5 6 5 3 1 1 1 1 1 1 1 1 1 1 1 1 1 1 1 1 1 1 1 1 1 1
13 12 10 9 9 8 7 5 3 3 2 2 2 3 4 5 5 6 6 5 3 2 1 2 2 2 1 1 1 1 1 1 1 1 1 1 1 1 1 1 1 1 1
11 11 11 10 9 8 6 5 4 3 2 2 2 3 4 4 5 5 5 4 3 2 2 3 3 2 1 1 1 1 1 1 1 1 1 1 1 1 1 1 1 1 1
10 10 10 10 9 7 5 4 4 3 3 3 3 3 3 3 4 4 4 3 3 3 4 4 3 2 1 2 2 2 1 1 2 2 2 2 2 1 1 1 1 1 1
11 10 10 9 8 6 4 3 3 4 4 4 4 3 3 3 3 3 3 3 4 4 4 4 4 2 1 2 2 2 2 2 2 2 2 2 2 1 1 1 1 1 1
13 11 9 9 8 6 5 5 5 5 5 5 4 3 3 2 2 3 3 4 5 5 5 5 3 2 2 2 2 2 2 2 2 2 2 2 2 2 2 1 1 1 1
14 12 10 9 7 6 7 7 8 7 7 6 6 4 3 3 2 3 3 4 5 6 6 5 3 2 2 2 2 2 2 3 3 3 3 2 2 2 2 1 1 1 1
13 11 9 8 7 6 7 8 9 8 8 8 7 5 4 3 3 3 3 4 5 6 6 4 3 3 3 3 2 2 2 3 3 3 3 3 2 2 2 2 2 1 1
10 9 8 7 6 6 6 7 8 9 8 8 7 5 4 4 4 4 3 4 5 5 5 4 4 3 3 3 3 2 2 3 3 3 3 3 3 3 3 3 2 2 2
7 7 7 6 6 6 6 7 8 10 10 9 7 5 5 5 5 4 4 4 4 5 5 5 5 4 3 3 2 2 2 3 3 4 4 4 4 3 3 3 3 3 3
7 7 7 6 5 5 5 6 8 11 12 10 8 6 5 5 5 4 4 4 4 5 6 7 6 5 4 3 1 1 3 4 4 4 4 3 3 3 2 3 3 4 4
7 7 6 5 4 4 4 6 9 12 13 12 10 8 7 6 5 5 5 5 5 6 7 8 7 6 5 3 2 1 2 4 5 5 5 4 3 2 1 2 3 3 4
6 6 5 5 4 3 4 6 8 11 13 12 11 11 10 8 6 6 6 5 6 6 7 7 7 6 5 4 3 1 1 2 4 5 4 4 2 1 0 1 1 2 2
6 6 5 5 4 4 4 6 7 9 12 13 14 13 12 10 8 7 6 6 6 6 6 6 6 6 6 5 3 1 0 1 2 2 3 2 2 1 0 0 0 0 0
7 7 6 6 5 4 4 5 6 8 12 16 17 16 14 12 10 8 7 6 6 6 6 6 6 6 6 6 5 3 1 1 1 1 1 1 1 1 1 1 1 0 0
6 7 7 7 5 4 4 4 5 8 12 17 18 17 15 13 11 9 7 6 5 5 5 6 6 7 7 7 6 5 3 2 1 1 1 1 1 1 2 2 2 1 1
5 6 7 7 6 5 4 5 5 7 11 16 18 18 16 14 12 9 7 6 4 3 3 4 6 7 7 7 5 5 5 3 2 1 0 1 1 2 2 2 3 2 2

GEFSMW_con_maxscp_318.txt.gz
SCP
0 1 1 1 1 1 1 1 0 0 0 0 0 0 1 1 1 1 1 1 1 1 1 1 1 1 1 1 0 0 0 0 0 0 0 0 0 0 0 0 0 0 0
0 1 1 1 1 1 1 1 0 0 0 0 1 1 1 1 1 1 1 1 1 1 1 1 1 1 1 1 1 1 0 0 0 0 0 0 0 0 0 0 0 0 0
1 1 1 1 1 1 1 1 1 1 1 1 1 2 2 2 1 1 1 1 1 1 1 1 1 1 1 1 1 1 1 0 0 0 0 0 0 0 0 0 0 0 0
1 1 1 1 1 1 1 1 1 1 1 1 2 3 3 3 2 2 2 1 1 1 1 1 1 1 1 1 1 1 1 1 1 1 1 0 0 0 0 0 0 0 0
1 1 1 1 1 1 1 1 1 1 1 1 2 3 4 4 3 2 2 1 1 1 1 1 1 1 1 1 1 1 1 1 1 1 1 1 0 0 0 0 0 0 0
1 1 1 1 1 1 1 1 1 1 2 1 2 3 4 4 4 3 2 1 1 1 1 1 1 1 1 1 1 1 1 1 1 1 1 1 1 1 1 1 1 1 0
0 1 1 1 2 2 2 2 2 2 2 2 2 3 4 4 3 2 2 1 1 1 1 1 1 1 1 1 1 1 1 1 1 1 1 1 1 1 1 1 1 1 1
1 1 1 2 3 4 4 3 3 3 3 2 3 3 3 3 3 2 1 1 2 1 1 1 1 1 1 1 1 1 1 1 1 1 1 1 1 1 1 2 1 1 1
1 1 2 3 4 5 5 5 4 3 3 3 3 3 3 2 2 1 1 1 2 2 1 1 1 1 1 1 1 1 1 1 1 1 1 1 1 2 2 2 2 2 1
1 2 3 5 5 6 6 6 5 4 3 2 2 2 2 2 1 1 1 2 2 3 2 1 1 1 1 1 1 1 1 1 1 1 1 1 1 2 2 2 2 2 1
2 3 5 7 7 6 6 6 5 4 3 2 2 1 1 1 1 1 2 2 3 3 3 2 1 1 1 1 1 1 1 1 1 1 1 1 2 2 2 2 2 2 1
3 4 7 9 9 8 7 7 5 3 2 1 1 1 1 1 1 1 2 3 4 4 3 2 1 1 1 2 1 1 1 1 1 1 1 1 2 2 2 2 2 2 1
4 6 8 10 10 9 9 8 6 4 2 1 1 2 2 2 1 1 2 3 3 3 3 2 1 1 2 2 2 1 1 1 1 1 1 1 2 2 2 2 2 1 1
5 7 9 10 11 10 10 9 7 4 2 2 2 2 2 2 1 1 2 2 2 3 2 2 2 2 2 2 2 1 1 1 1 1 1 1 2 2 2 1 1 1 1
6 7 9 11 11 10 10 9 8 4 2 2 2 2 3 2 2 1 1 1 2 2 2 2 2 2 2 2 2 2 1 1 1 1 1 2 2 1 1 1 1 1 1
7 7 9 11 11 10 9 9 8 5 3 3 3 3 4 4 3 2 2 1 1 2 2 2 2 2 2 2 1 1 2 2 2 2 2 2 2 1 1 1 1 1 1
8 8 9 11 11 9 8 8 7 5 4 4 4 5 6 5 4 3 3 2 2 1 2 2 2 2 2 2 1 1 1 2 2 2 2 2 2 2 2 2 2 1 1
7 8 9 11 11 9 7 6 6 5 4 4 5 6 7 6 4 4 3 3 2 2 2 2 2 2 2 1 1 1 1 2 2 2 2 2 2 2 2 3 3 2 2
5 5 8 10 10 8 6 5 4 4 3 3 4 6 6 5 4 3 3 3 2 2 2 2 2 2 2 1 1 1 2 2 2 2 2 2 2 2 2 3 3 3 3
3 4 6 9 9 7 6 5 4 4 3 3 4 4 5 4 3 2 2 2 2 2 1 1 2 2 2 1 1 1 2 2 2 2 2 2 2 1 1 2 3 3 3
3 3 5 8 8 6 5 5 4 4 3 3 3 3 3 3 3 3 3 3 2 2 1 1 2 2 2 2 1 1 1 2 2 2 2 2 1 1 0 1 2 2 2
3 3 5 6 6 4 4 4 4 3 3 3 3 3 3 3 3 3 3 4 3 2 2 2 2 2 2 2 2 1 1 1 2 2 2 1 1 0 0 0 1 1 1
2 3 3 4 4 3 3 3 3 3 3 3 3 3 3 3 4 4 4 4 4 3 2 2 2 3 3 2 2 2 1 1 1 2 2 1 0 0 0 0 0 0 0
2 2 3 3 3 2 2 2 2 2 3 3 3 3 3 4 5 5 5 5 5 4 3 3 3 3 3 3 2 2 1 1 1 1 1 1 0 0 0 0 0 0 0
2 2 2 3 2 2 2 2 2 2 2 2 3 3 3 4 5 6 6 6 5 4 4 3 4 4 3 3 2 1 1 0 0 1 1 1 1 1 1 1 1 1 0
2 2 2 3 3 2 2 2 2 1 2 2 3 3 4 5 6 7 6 6 5 4 3 3 4 3 3 2 1 1 0 0 0 0 1 1 1 1 1 1 1 1 1

GEFSMW_con_maxscp_324.txt.gz
SCP
0 1 1 1 2 1 1 1 1 1 1 1 1 1 1 1 1 1 1 1 1 1 1 1 1 1 1 1 1 1 1 1 1 1 1 1 1 1 1 1 1 1 1
1 1 1 1 1 1 1 1 1 1 1 1 1 1 1 1 1 1 1 1 1 1 1 1 1 1 1 1 1 1 1 1 1 1 1 1 1 1 1 1 1 1 1
1 1 1 1 1 1 1 1 1 1 1 1 1 1 1 1 1 1 1 1 1 1 1 1 1 1 1 1 1 1 1 1 1 1 1 1 1 1 1 1 1 1 1
1 1 1 1 1 1 1 1 1 1 2 2 2 1 1 1 1 1 1 1 1 1 1 1 1 1 1 1 1 1 1 1 1 1 1 1 1 1 1 1 1 1 1
1 1 1 1 1 1 1 1 1 2 3 3 3 2 1 1 2 2 2 2 2 2 2 1 1 1 1 1 1 1 1 1 1 1 1 1 1 2 2 2 2 1 1
1 1 1 1 1 1 1 1 2 3 4 5 4 3 2 2 3 3 4 4 3 3 2 2 1 1 1 1 1 1 1 1 1 1 2 2 2 2 2 2 2 1 1
1 1 1 2 2 1 1 2 2 4 5 6 5 4 3 3 3 4 4 5 5 4 3 2 2 1 1 1 1 1 1 2 1 1 2 2 2 2 3 3 3 2 2
1 2 2 2 2 2 2 2 3 4 5 6 6 6 4 4 4 4 5 5 5 4 3 2 2 1 1 1 1 2 2 2 2 2 2 2 2 3 3 3 3 3 2
2 2 2 3 3 3 3 3 3 3 4 5 6 6 6 5 5 5 5 5 5 4 3 2 2 1 1 2 2 2 3 3 3 2 2 2 2 3 3 3 3 3 2
2 2 2 3 3 3 3 3 3 3 4 5 6 6 7 6 6 6 7 6 5 4 3 2 1 2 2 3 3 4 4 5 4 3 2 2 2 3 3 3 3 3 2
2 2 2 3 3 3 3 3 3 3 3 4 5 6 7 8 8 8 7 6 4 3 2 2 1 2 2 3 4 4 5 5 5 4 3 3 3 3 3 3 2 2 2
2 2 3 3 3 2 3 3 3 3 4 4 5 6 8 10 10 9 7 6 5 4 3 2 2 2 2 3 4 5 5 6 6 5 4 3 3 3 3 3 2 2 2
3 3 3 3 3 2 2 3 3 4 4 5 6 8 10 11 11 9 8 6 5 4 3 2 1 2 2 3 5 5 6 6 6 5 5 4 3 3 4 3 3 2 2
3 3 3 3 3 3 3 3 4 4 5 6 8 9 9 10 10 10 8 8 7 6 4 2 1 1 2 4 5 6 6 6 5 5 5 4 3 4 5 4 3 3 3
3 3 3 3 3 3 3 4 4 5 6 7 8 8 8 9 10 10 10 11 9 7 5 3 2 2 3 4 4 5 5 5 5 4 4 4 3 3 4 3 3 3 3
3 3 3 3 4 4 4 4 5 5 6 7 7 7 7 8 9 10 12 13 12 9 6 4 3 3 3 3 3 3 4 4 4 4 4 4 3 3 3 2 2 2 3
3 3 3 4 5 5 6 7 7 7 8 8 7 6 7 8 8 9 11 12 12 10 7 4 3 3 3 2 1 2 3 4 4 4 5 5 4 4 3 3 2 2 2
5 6 7 8 9 10 11 11 10 10 10 8 6 6 7 7 7 7 8 9 10 10 7 5 4 3 3 2 1 1 3 4 4 5 6 6 6 5 4 4 3 3 3
10 11 13 15 16 16 14 12 11 9 8 7 6 6 7 6 6 6 6 6 7 7 6 4 4 3 3 3 2 2 3 4 5 5 6 6 6 5 4 4 4 4 4
13 15 17 17 17 14 11 9 8 7 6 6 6 6 6 5 5 5 5 5 5 5 5 4 4 4 4 3 2 2 3 4 4 4 4 4 4 3 2 2 3 4 4
12 13 13 12 11 9 8 7 7 7 7 7 5 4 4 4 4 4 5 4 4 4 5 5 4 4 4 3 2 2 2 3 3 3 3 3 2 1 1 1 2 3 3
8 8 8 7 6 6 7 7 8 8 8 7 6 4 3 4 4 5 5 5 4 4 5 5 5 4 3 3 2 1 1 1 2 2 2 2 1 0 0 1 1 1 1
7 7 6 6 5 6 6 6 7 7 7 7 5 4 4 4 4 5 5 5 5 5 4 4 4 3 3 2 2 1 1 1 1 2 2 1 1 0 0 0 0 1 1
7 7 6 6 5 5 5 5 6 6 6 6 5 4 4 4 5 5 5 5 5 5 4 4 3 3 3 3 3 3 2 1 1 2 2 1 1 1 1 1 1 1 2
8 7 6 6 5 4 4 5 5 5 5 6 6 5 5 5 5 5 5 4 4 4 4 4 4 3 3 2 3 3 3 2 2 2 2 2 2 2 2 2 2 2 3
8 8 7 5 4 4 4 5 5 5 5 5 6 6 5 6 6 6 5 4 3 3 3 4 4 3 2 2 2 2 2 1 1 2 2 2 2 2 2 2 2 3 4

GEFSMW_con_maxscp_330.txt.gz
SCP
1 1 1 2 2 2 3 3 3 2 2 2 2 2 2 2 2 3 3 2 2 2 2 1 1 2 2 2 2 2 3 3 3 3 2 2 2 2 2 2 1 1 1
2 2 2 2 2 3 3 3 3 3 2 2 2 3 2 2 2 3 3 2 2 2 2 2 1 1 2 2 2 2 2 3 3 3 3 2 2 2 1 1 1 1 1
2 2 3 3 3 4 4 4 4 4 3 2 2 2 3 3 3 3 2 2 2 2 2 2 2 1 1 2 2 2 2 2 2 2 3 3 2 2 2 1 1 1 1
2 3 3 4 4 4 5 5 6 5 4 3 2 2 2 3 3 2 2 2 2 2 2 2 2 2 1 2 2 2 2 2 2 2 2 3 3 3 2 2 2 1 1
2 2 3 4 4 4 5 7 7 7 5 3 3 2 2 2 2 2 2 3 3 3 2 2 2 2 2 2 2 2 2 2 2 2 2 3 3 3 3 3 2 2 1
2 2 3 4 4 4 5 6 8 8 6 4 3 3 3 3 2 2 2 3 3 4 4 4 4 3 2 2 2 3 2 2 2 2 2 3 3 3 3 4 3 2 1
2 2 3 5 5 5 5 6 8 9 8 6 4 4 4 3 3 3 3 4 5 5 6 6 6 5 3 3 3 3 3 3 3 3 3 3 3 3 4 4 3 2 2
2 2 4 5 6 6 6 6 7 9 10 8 6 5 4 4 4 4 5 6 6 7 8 8 7 6 4 4 3 3 3 3 3 3 3 3 3 4 3 3 3 2 2
2 2 3 5 6 7 8 7 7 9 10 10 8 6 5 5 5 6 7 8 9 10 11 10 7 6 5 5 5 4 4 4 4 4 4 4 3 3 3 2 2 2 2
1 2 3 4 5 7 8 8 8 9 10 10 10 8 7 6 7 8 9 10 12 14 14 11 7 5 4 5 5 5 5 5 5 5 5 5 4 3 3 2 2 3 3
1 2 3 4 6 8 9 10 10 10 10 10 11 10 9 8 8 9 11 12 15 17 16 11 7 5 4 4 4 5 5 5 5 6 7 7 5 4 4 3 3 3 3
1 2 3 5 7 8 9 11 13 12 10 10 11 12 11 9 8 9 11 14 16 17 16 12 8 5 4 4 4 4 5 5 5 6 7 8 7 6 6 5 4 3 3
2 2 4 5 8 9 10 12 13 12 10 10 11 12 12 11 11 12 13 15 17 18 18 15 10 6 5 4 4 5 5 6 6 6 7 7 7 7 7 6 5 4 3
4 4 5 6 8 9 10 10 11 11 11 13 15 17 17 17 18 18 18 18 18 20 21 19 13 8 6 5 5 6 7 7 6 6 6 6 6 6 7 7 6 5 4
6 6 7 7 7 8 9 9 9 10 12 15 19 22 22 22 21 19 18 18 19 20 21 19 14 9 6 5 5 6 7 7 6 5 5 5 5 5 6 7 7 6 6
7 7 6 6 7 8 9 9 8 8 10 12 16 19 19 18 16 15 15 16 17 17 18 16 12 8 5 3 3 4 5 6 6 6 6 6 5 4 4 5 5 5 5
6 6 5 6 7 9 10 10 9 9 9 10 12 15 15 14 12 12 15 15 14 13 13 12 10 6 4 3 3 3 4 4 5 7 7 6 4 3 3 3 3 4 4
7 6 5 6 7 10 11 10 10 11 12 14 16 18 17 13 11 12 14 13 11 9 9 9 7 5 4 3 3 3 4 4 5 6 6 5 3 3 2 2 3 3 3
10 9 8 8 11 14 13 12 11 12 14 16 17 17 15 12 11 12 12 11 9 8 7 7 6 5 5 4 3 3 4 5 5 4 4 4 4 3 2 2 3 3 3
11 11 11 12 16 18 16 13 11 10 10 11 11 12 11 10 10 11 10 10 8 7 7 6 6 6 6 4 3 2 4 5 4 4 4 4 4 3 2 2 2 3 3
8 9 11 14 17 18 15 12 9 8 7 7 7 8 8 8 8 9 10 10 9 8 7 6 6 7 6 4 3 2 2 3 3 4 4 4 3 2 1 1 2 2 2
5 6 9 13 16 16 12 10 8 8 8 8 8 8 8 7 7 8 10 10 9 8 7 7 7 7 6 4 3 2 1 2 3 4 4 3 2 1 0 1 1 1 1
4 5 8 12 15 13 10 9 9 10 10 10 10 9 9 8 8 8 9 9 8 7 7 7 6 6 6 5 4 3 1 1 2 3 3 3 2 1 0 1 1 1 1
8 8 9 14 15 13 10 10 11 11 12 12 11 11 10 9 8 8 8 7 7 7 7 6 6 6 5 5 5 4 2 1 1 2 2 2 2 1 1 1 1 1 1
11 11 13 18 19 15 12 11 12 12 12 11 11 11 10 9 8 8 7 7 6 5 5 5 5 5 4 4 4 4 3 2 1 1 1 3 3 3 3 2 2 2 2
10 10 15 20 22 18 13 12 11 12 11 10 10 9 9 9 9 8 7 6 5 4 3 3 4 4 4 3 3 3 4 3 1 1 1 2 4 5 4 3 3 3 3